Location: Newark
(44.3681°N, 100.3364°W)
Time: 12:38:53
(UTC+00:00)

Vanguard 1 - Pass Details

Date: 29 February 2020
Orbit: 649 x 3833 km, 34.2° (Epoch: 03 April)

Event Time Altitude Azimuth Distance (km) Brightness Sun altitude
Rises 10:06:47 0° 194° (SSW) 7,075 - -34.4°
Exits shadow 10:08:15 - 191° (S) 6,902 14.1 -34.2°
Reaches altitude 10° 10:12:38 10° 182° (S) 6,433 13.9 -33.5°
Maximum altitude 10:28:35 26° 135° (SE) 5,657 14.0 -30.9°
Drops below altitude 10° 10:44:42 10° 90° (E) 6,607 15.1 -28.2°
Sets 10:50:38 0° 79° (E) 7,308 15.8 -27.1°
